User: anonymous
Location: Unspecified
(0.0000°N, 0.0000°E)
Time: 18:48:18
(UTC+02:00)
Language:

H-2A R/B - Orbit

View from above orbital plane
View from above orbital plane
View from above satellite
View from above satellite

Ground track
Ground track

The orbit data is extracted from the following two-line orbital elements,

1 28932U 06002B   14209.72298801  .00001212  00000-0  12791-3 0  7543
2 28932 098.2982 072.0464 0096845 157.3190 245.1660 14.87999505460769
Epoch (UTC): 28 July 2014 17:21:06
Eccentricity: 0.0096845
inclination: 98.2982°
perigee height: 536 km
apogee height: 672 km
right ascension of ascending node: 72.0464°
argument of perigee: 157.3190°
revolutions per day: 14.87999505
mean anomaly at epoch: 245.1660°
orbit number at epoch: 46076

The dashed part of the orbit path shows where the satellite is in the earth's shadow,  

DLR